When you browse on this site, cookies collect data to enhance your experience and personalize the content and advertising you see.
Visit our Privacy Policy to learn more. By continuing to use the site, you agree to this use of cookies and data.
  • In Portugal
  • List of Countries
  • For 7 days
  • Water Temperature
  • Satellite Maps
  • Weather Map
  • Weather Widgets
  • user-avatar
    Login

    Hourly Weather Chrzastowko

    Today, 21 July, Sunday

    Time Temperature Precipitation Wind Pressure Humidity
    00:00 +19°C° 0 mm 3 mps 747 mmHg 78%
    01:00 +19°C° 0 mm 3 mps 747 mmHg 73%
    02:00 +19°C° 0.3 mm 3 mps 747 mmHg 78%
    03:00 +18°C° 0.3 mm 3 mps 747 mmHg 83%
    04:00 +18°C° 0.3 mm 2 mps 747 mmHg 88%
    05:00 +18°C° 0 mm 3 mps 747 mmHg 88%
    06:00 +19°C° 0 mm 3 mps 747 mmHg 88%
    07:00 +20°C° 0 mm 3 mps 747 mmHg 86%
    08:00 +21°C° 0 mm 3 mps 748 mmHg 81%
    09:00 +22°C° 0 mm 4 mps 748 mmHg 76%
    10:00 +22°C° 0 mm 4 mps 749 mmHg 71%
    11:00 +23°C° 0.1 mm 4 mps 749 mmHg 67%
    12:00 +25°C° 0.1 mm 4 mps 749 mmHg 62%
    13:00 +26°C° 0.1 mm 4 mps 749 mmHg 57%
    14:00 +26°C° 0.3 mm 4 mps 749 mmHg 59%
    15:00 +26°C° 0.3 mm 4 mps 750 mmHg 62%
    16:00 +25°C° 0.3 mm 5 mps 750 mmHg 64%
    17:00 +23°C° 0 mm 4 mps 750 mmHg 68%
    18:00 +22°C° 0 mm 3 mps 750 mmHg 72%
    19:00 +21°C° 0 mm 3 mps 750 mmHg 76%
    20:00 +19°C° 0 mm 3 mps 751 mmHg 80%
    21:00 +18°C° 0 mm 2 mps 751 mmHg 85%
    22:00 +17°C° 0 mm 2 mps 751 mmHg 90%
    23:00 +16°C° 0 mm 2 mps 752 mmHg 92%

    Tomorrow, 22 July, Monday

    Time Temperature Precipitation Wind Pressure Humidity
    00:00 +16°C° 0 mm 3 mps 752 mmHg 93%
    01:00 +14°C° 0 mm 3 mps 752 mmHg 95%
    02:00 +14°C° 0 mm 3 mps 752 mmHg 96%
    03:00 +14°C° 0 mm 3 mps 752 mmHg 97%
    04:00 +13°C° 0 mm 3 mps 752 mmHg 97%
    05:00 +14°C° 0 mm 3 mps 752 mmHg 92%
    06:00 +16°C° 0 mm 3 mps 752 mmHg 88%
    07:00 +18°C° 0 mm 4 mps 753 mmHg 83%
    08:00 +19°C° 0 mm 4 mps 753 mmHg 77%
    09:00 +20°C° 0 mm 4 mps 753 mmHg 71%
    10:00 +20°C° 0 mm 4 mps 753 mmHg 65%
    11:00 +21°C° 0 mm 4 mps 753 mmHg 63%
    12:00 +22°C° 0 mm 4 mps 753 mmHg 60%
    13:00 +22°C° 0 mm 4 mps 753 mmHg 58%
    14:00 +22°C° 0 mm 4 mps 753 mmHg 58%
    15:00 +22°C° 0 mm 4 mps 753 mmHg 59%
    16:00 +22°C° 0 mm 4 mps 753 mmHg 59%
    17:00 +21°C° 0 mm 4 mps 753 mmHg 63%
    18:00 +20°C° 0 mm 3 mps 753 mmHg 67%
    19:00 +19°C° 0 mm 3 mps 753 mmHg 72%
    20:00 +18°C° 0 mm 3 mps 753 mmHg 75%
    21:00 +17°C° 0 mm 2 mps 753 mmHg 79%
    22:00 +16°C° 0 mm 2 mps 753 mmHg 82%
    23:00 +16°C° 0.1 mm 2 mps 753 mmHg 82%

    Day after tomorrow, 23 July, Tuesday

    Time Temperature Precipitation Wind Pressure Humidity
    00:00 +16°C° 0.1 mm 2 mps 753 mmHg 82%
    01:00 +16°C° 0.1 mm 2 mps 753 mmHg 83%
    02:00 +15°C° 0.3 mm 2 mps 753 mmHg 87%
    03:00 +15°C° 0.3 mm 2 mps 753 mmHg 91%
    04:00 +15°C° 0.3 mm 2 mps 753 mmHg 95%
    05:00 +15°C° 0.1 mm 2 mps 753 mmHg 94%
    06:00 +16°C° 0.1 mm 2 mps 752 mmHg 93%
    07:00 +16°C° 0.1 mm 2 mps 752 mmHg 93%
    08:00 +17°C° 0 mm 2 mps 753 mmHg 91%
    09:00 +18°C° 0 mm 2 mps 753 mmHg 89%
    10:00 +19°C° 0 mm 3 mps 753 mmHg 86%
    11:00 +20°C° 0 mm 3 mps 753 mmHg 83%
    12:00 +21°C° 0 mm 3 mps 753 mmHg 79%
    13:00 +22°C° 0 mm 3 mps 752 mmHg 76%
    14:00 +24°C° 0 mm 3 mps 752 mmHg 72%
    15:00 +25°C° 0 mm 4 mps 752 mmHg 69%
    16:00 +26°C° 0 mm 4 mps 752 mmHg 65%
    17:00 +25°C° 0 mm 4 mps 752 mmHg 69%
    18:00 +24°C° 0 mm 3 mps 752 mmHg 72%
    19:00 +22°C° 0 mm 3 mps 751 mmHg 76%
    20:00 +21°C° 0 mm 2 mps 751 mmHg 82%
    21:00 +19°C° 0 mm 2 mps 752 mmHg 88%
    22:00 +17°C° 0 mm 2 mps 752 mmHg 93%
    23:00 +17°C° 0 mm 2 mps 752 mmHg 94%

    24 July, Wednesday

    Time Temperature Precipitation Wind Pressure Humidity
    00:00 +17°C° 0 mm 2 mps 751 mmHg 95%
    01:00 +17°C° 0 mm 2 mps 751 mmHg 96%
    02:00 +17°C° 0 mm 2 mps 751 mmHg 96%
    03:00 +17°C° 0 mm 2 mps 751 mmHg 97%
    04:00 +17°C° 0 mm 2 mps 751 mmHg 97%
    05:00 +18°C° 0 mm 2 mps 751 mmHg 92%
    06:00 +20°C° 0 mm 2 mps 751 mmHg 87%
    07:00 +21°C° 0 mm 2 mps 751 mmHg 83%
    08:00 +24°C° 0 mm 3 mps 752 mmHg 75%
    09:00 +26°C° 0 mm 3 mps 752 mmHg 67%
    10:00 +28°C° 0 mm 3 mps 752 mmHg 59%
    11:00 +28°C° 0 mm 3 mps 752 mmHg 56%
    12:00 +29°C° 0 mm 3 mps 752 mmHg 53%
    13:00 +30°C° 0 mm 3 mps 752 mmHg 50%
    14:00 +30°C° 0 mm 3 mps 752 mmHg 50%
    15:00 +30°C° 0 mm 3 mps 752 mmHg 51%
    16:00 +30°C° 0 mm 3 mps 751 mmHg 51%
    17:00 +28°C° 0 mm 3 mps 751 mmHg 57%
    18:00 +27°C° 0 mm 3 mps 751 mmHg 64%
    19:00 +25°C° 0 mm 2 mps 751 mmHg 70%
    20:00 +24°C° 0 mm 2 mps 751 mmHg 76%
    21:00 +21°C° 0 mm 2 mps 752 mmHg 83%
    22:00 +19°C° 0 mm 2 mps 752 mmHg 89%
    23:00 +19°C° 0 mm 2 mps 752 mmHg 90%

    25 July, Thursday

    Time Temperature Precipitation Wind Pressure Humidity
    00:00 +19°C° 0 mm 1 mps 752 mmHg 92%
    01:00 +19°C° 0 mm 1 mps 752 mmHg 93%
    02:00 +19°C° 0 mm 1 mps 752 mmHg 93%
    03:00 +18°C° 0 mm 1 mps 752 mmHg 93%
    04:00 +18°C° 0 mm 1 mps 752 mmHg 94%
    05:00 +20°C° 0 mm 1 mps 752 mmHg 87%
    06:00 +21°C° 0 mm 1 mps 753 mmHg 80%
    07:00 +23°C° 0 mm 1 mps 753 mmHg 74%
    08:00 +24°C° 0 mm 2 mps 753 mmHg 67%
    09:00 +26°C° 0 mm 2 mps 753 mmHg 60%
    10:00 +28°C° 0 mm 2 mps 753 mmHg 53%
    11:00 +29°C° 0 mm 2 mps 753 mmHg 49%
    12:00 +30°C° 0 mm 2 mps 753 mmHg 45%
    13:00 +30°C° 0 mm 1 mps 753 mmHg 42%
    14:00 +31°C° 0 mm 2 mps 752 mmHg 41%
    15:00 +31°C° 0 mm 2 mps 752 mmHg 41%
    16:00 +31°C° 0 mm 2 mps 752 mmHg 41%
    17:00 +29°C° 0 mm 2 mps 752 mmHg 48%
    18:00 +28°C° 0 mm 2 mps 752 mmHg 55%
    19:00 +26°C° 0 mm 2 mps 751 mmHg 62%
    20:00 +25°C° 0 mm 3 mps 751 mmHg 71%
    21:00 +22°C° 0 mm 3 mps 752 mmHg 79%
    22:00 +21°C° 0 mm 3 mps 752 mmHg 87%
    23:00 +20°C° 0 mm 3 mps 752 mmHg 90%

    26 July, Friday

    Time Temperature Precipitation Wind Pressure Humidity
    00:00 +20°C° 0 mm 3 mps 752 mmHg 92%
    01:00 +19°C° 0 mm 2 mps 752 mmHg 95%
    02:00 +19°C° 0 mm 2 mps 751 mmHg 95%
    03:00 +19°C° 0 mm 2 mps 751 mmHg 96%
    04:00 +19°C° 0 mm 2 mps 751 mmHg 96%
    05:00 +20°C° 0 mm 3 mps 751 mmHg 89%
    06:00 +22°C° 0 mm 3 mps 751 mmHg 82%
    07:00 +24°C° 0 mm 3 mps 751 mmHg 75%
    08:00 +26°C° 0 mm 4 mps 751 mmHg 68%
    09:00 +27°C° 0 mm 4 mps 751 mmHg 60%
    10:00 +29°C° 0 mm 4 mps 751 mmHg 53%
    11:00 +30°C° 0 mm 5 mps 751 mmHg 51%
    12:00 +30°C° 0 mm 5 mps 751 mmHg 48%
    13:00 +32°C° 0 mm 5 mps 750 mmHg 46%
    14:00 +32°C° 0 mm 5 mps 750 mmHg 46%
    15:00 +32°C° 0 mm 5 mps 750 mmHg 46%
    16:00 +32°C° 0 mm 5 mps 750 mmHg 47%
    17:00 +29°C° 0 mm 4 mps 749 mmHg 52%
    18:00 +28°C° 0 mm 3 mps 749 mmHg 57%
    19:00 +27°C° 0 mm 3 mps 749 mmHg 63%
    20:00 +26°C° 0 mm 3 mps 750 mmHg 65%
    21:00 +25°C° 0 mm 3 mps 750 mmHg 68%
    22:00 +24°C° 0 mm 3 mps 750 mmHg 71%
    23:00 +22°C° 0 mm 3 mps 750 mmHg 73%
    Show more